VE7VT Weather Reports


time (UTC)temp
C
wind
direction
speed
KPH
gust
KPH
rain 1hr
cm
rain 24hr
cm
rain mn
cm
humidity
%
barometer
mb
20260503181518 23 91 1.6 6.4 0.00 0.00 0.00 42 1014.5
20260503180537 23 77 3.2 6.4 0.00 0.00 0.00 42 1014.6
20260503175517 23 298 1.6 6.4 0.00 0.00 0.00 40 1014.6
20260503174518 22 85 3.2 8.0 0.00 0.00 0.00 39 1014.6
20260503173518 22 94 3.2 8.0 0.00 0.00 0.00 40 1014.7
20260503172518 22 89 3.2 6.4 0.00 0.00 0.00 42 1014.8
20260503171516 21 89 3.2 6.4 0.00 0.00 0.00 44 1014.9
20260503170515 21 91 1.6 4.8 0.00 0.00 0.00 46 1014.9
20260503150518 18 189 3.2 4.8 0.00 0.00 0.00 52 1015.4
20260503130516 12 47 3.2 6.4 0.00 0.00 0.00 68 1015.1
20260503110516 13 340 3.2 8.0 0.00 0.00 0.00 66 1015.1
20260503081517 14 116 1.6 4.8 0.00 0.00 0.00 66 1015.0
20260503080517 14 157 3.2 6.4 0.00 0.00 0.00 67 1015.0
20260503072518 15 229 3.2 4.8 0.00 0.00 0.00 65 1014.8
20260503071518 15 251 3.2 4.8 0.00 0.00 0.00 65 1014.8
20260503070518 16 260 3.2 4.8 0.00 0.00 0.00 62 1014.8
20260503054516 17 255 3.2 4.8 0.00 0.00 0.00 60 1014.4
20260503053557 17 255 3.2 4.8 0.00 0.00 0.00 60 1014.4
20260503052516 17 215 3.2 4.8 0.00 0.00 0.00 59 1014.4
20260503051536 17 262 3.2 6.4 0.00 0.00 0.00 58 1014.3
20260503050516 17 250 3.2 6.4 0.00 0.00 0.00 57 1014.3
20260503045517 18 266 3.2 6.4 0.00 0.00 0.00 55 1014.3
20260503044517 18 183 3.2 4.8 0.00 0.00 0.00 54 1014.2
20260503043517 18 226 1.6 3.2 0.00 0.00 0.00 53 1014.2
20260503042517 19 274 3.2 3.2 0.00 0.00 0.00 52 1014.1
20260503041518 19 276 3.2 3.2 0.00 0.00 0.00 52 1014.0
20260503040518 19 288 3.2 4.8 0.00 0.00 0.00 51 1013.9
20260503035518 19 283 3.2 3.2 0.00 0.00 0.00 51 1013.8
20260503034518 20 285 3.2 4.8 0.00 0.00 0.00 50 1013.8
20260503033516 20 274 4.8 8.0 0.00 0.00 0.00 48 1013.7
20260503032515 20 284 3.2 4.8 0.00 0.00 0.00 47 1013.6
20260503031516 21 279 3.2 4.8 0.00 0.00 0.00 45 1013.6
20260503030516 21 273 3.2 3.2 0.00 0.00 0.00 43 1013.6
20260503025516 21 278 3.2 4.8 0.00 0.00 0.00 42 1013.5
20260503024517 22 284 3.2 6.4 0.00 0.00 0.00 42 1013.4
20260503023516 22 287 3.2 6.4 0.00 0.00 0.00 41 1013.5
20260503022516 22 288 3.2 4.8 0.00 0.00 0.00 40 1013.5
20260503021517 22 291 3.2 6.4 0.00 0.00 0.00 40 1013.6
20260503020517 22 292 3.2 6.4 0.00 0.00 0.00 40 1013.6
20260503015517 23 287 4.8 8.0 0.00 0.00 0.00 38 1013.7
20260503014518 24 285 3.2 8.0 0.00 0.00 0.00 37 1013.8
20260503013518 25 289 3.2 8.0 0.00 0.00 0.00 37 1013.9
20260503012518 25 282 1.6 6.4 0.00 0.00 0.00 37 1014.0
20260503011518 25 277 1.6 6.4 0.00 0.00 0.00 37 1014.0
20260503010518 25 286 1.6 9.7 0.00 0.00 0.00 36 1014.0
20260503005538 25 291 1.6 4.8 0.00 0.00 0.00 36 1014.1
20260503004516 25 289 3.2 8.0 0.00 0.00 0.00 37 1014.1
20260503003515 25 287 3.2 12.9 0.00 0.00 0.00 37 1014.2
20260503002516 24 292 4.8 14.5 0.00 0.00 0.00 38 1014.3
20260503001516 25 288 3.2 12.9 0.00 0.00 0.00 38 1014.4
20260503000536 25 281 3.2 9.7 0.00 0.00 0.00 38 1014.5
20260502235536 25 292 4.8 12.9 0.00 0.00 0.00 37 1014.6
20260502234516 25 284 3.2 11.3 0.00 0.00 0.00 37 1014.6
20260502233517 25 288 3.2 9.7 0.00 0.00 0.00 38 1014.7
20260502232516 24 284 4.8 11.3 0.00 0.00 0.00 38 1014.8
20260502231517 25 295 3.2 9.7 0.00 0.00 0.00 38 1014.9
20260502230517 25 283 4.8 12.9 0.00 0.00 0.00 37 1015.0
20260502225518 25 284 3.2 8.0 0.00 0.00 0.00 37 1015.2
20260502224538 24 286 3.2 9.7 0.00 0.00 0.00 38 1015.2
20260502223517 23 297 4.8 11.3 0.00 0.00 0.00 40 1015.4
20260502222518 23 295 4.8 12.9 0.00 0.00 0.00 41 1015.5
20260502221558 24 295 3.2 8.0 0.00 0.00 0.00 38 1015.6
20260502220518 24 285 3.2 8.0 0.00 0.00 0.00 38 1015.7
20260502215518 23 318 1.6 6.4 0.00 0.00 0.00 39 1015.8
20260502214516 23 295 3.2 8.0 0.00 0.00 0.00 41 1015.9
20260502213516 23 300 3.2 8.0 0.00 0.00 0.00 42 1016.1
20260502212536 23 286 3.2 11.3 0.00 0.00 0.00 41 1016.1
20260502211516 22 293 3.2 8.0 0.00 0.00 0.00 43 1016.2
20260502210516 22 287 6.4 16.1 0.00 0.00 0.00 43 1016.3
20260502205516 23 282 4.8 9.7 0.00 0.00 0.00 48 1016.3
20260502204516 23 289 3.2 9.7 0.00 0.00 0.00 47 1016.5
20260502203517 23 293 3.2 8.0 0.00 0.00 0.00 46 1016.6
20260502202517 23 291 3.2 11.3 0.00 0.00 0.00 44 1016.6
20260502201517 23 294 3.2 8.0 0.00 0.00 0.00 45 1016.7
20260502200517 23 297 4.8 9.7 0.00 0.00 0.00 43 1016.8
20260502195518 23 297 3.2 9.7 0.00 0.00 0.00 44 1017.0
20260502194518 23 68 1.6 9.7 0.00 0.00 0.00 48 1017.1
20260502193518 23 80 3.2 6.4 0.00 0.00 0.00 51 1017.1
20260502192518 23 337 3.2 6.4 0.00 0.00 0.00 51 1017.2
20260502191538 22 84 3.2 6.4 0.00 0.00 0.00 53 1017.2
20260502190518 21 83 3.2 9.7 0.00 0.00 0.00 54 1017.3
20260502185515 21 84 4.8 8.0 0.00 0.00 0.00 54 1017.4
20260502184515 21 292 4.8 9.7 0.00 0.00 0.00 50 1017.4
20260502183516 21 290 3.2 6.4 0.00 0.00 0.00 52 1017.5
20260502182516 21 300 3.2 6.4 0.00 0.00 0.00 52 1017.5